Weather Roundup
Issued by NWS

Home | Current Version | Previous Version | Text Only | Print | Product List | Glossary On
Versions: 1 2 3 4 5 6 7 8 9 10 11 12 13 14 15 16 17 18 19 20 21 22 23 24 25 26 27 28 29 30 31 32 33 34 35 36 37 38 39 40 41 42 43 44 45 46 47 48 49 50
000
NZUS93 KARX 050210
HRRWXR

CURRENT HOURLY OBSERVATIONS ACROSS
MUCH OF THE UPPER MISSISSIPPI VALLEY
NATIONAL WEATHER SERVICE LA CROSSE WI
800 PM CST SUN DEC 04 2016


...SOUTHEAST MINNESOTA...


CITY           SKY/WX    TMP DP  RH WIND       PRES   REMARKS
ROCHESTER      CLOUDY    34  33  96 SW14      29.78F WCI  25
ROCHESTER/MAYO CLOUDY    35  35 100 SW14G21   29.78S WCI  26
WINONA         CLOUDY    36  32  87 SW9       29.80S WCI  29
AUSTIN         NOT AVBL
ALBERT LEA     CLEAR     37  37 100 SW12      29.79F FOG     WCI  30
DODGE CENTER   CLOUDY    34  34 100 SW14      29.78R FOG     WCI  24
PRESTON        CLOUDY    32  30  94 SW10      29.80S WCI  24
OWATONNA       CLEAR     34  32  93 SW9       29.78S WCI  26
FARIBAULT      CLEAR     36  34  93 SW7       29.78R WCI  30
$$

...ELSEWHERE IN MINNESOTA...


CITY           SKY/WX    TMP DP  RH WIND       PRES   REMARKS
MINNEAPOLIS    CLOUDY    36  30  79 W13G25    29.76R WCI  27
INTNL FALLS    LGT SNOW  30  28  92 SE6       29.60S VSB 1   WCI  24
DULUTH         FRZ DRZL  32  31  96 SW8       29.63F FOG     WCI  25
RED WING       CLOUDY    37  34  87 W6        29.76S WCI  33
REDWOOD FALLS  CLEAR     32  29  88 SW5       29.77S WCI  27
MANKATO        MOCLDY    36  32  85 W6        29.79S WCI  31
WORTHINGTON    CLEAR     35  31  85 SW10      29.79S WCI  27
FAIRMONT       CLEAR     35  31  85 SW9       29.81R WCI  28
$$

...SOUTHWEST WISCONSIN...


CITY           SKY/WX    TMP DP  RH WIND       PRES   REMARKS
LA CROSSE      PTCLDY    36  32  85 S10       29.81F WCI  28
PRAIRIE DU CHI CLOUDY    34  31  87 W7        29.86S WCI  28
BOSCOBEL       CLOUDY    34  32  92 SW7       29.86S WCI  28
LONE ROCK      CLOUDY    33  30  88 SW6       29.85F WCI  28
PLATTEVILLE    CLOUDY    32  32 100 SW8       29.86F WCI  25
FORT MC COY    CLOUDY    32  32  99 SW3       29.82F
CAMP DOUGLAS   CLOUDY    32  32 100 SW7       29.81S WCI  26
MAUSTON-NEW LI CLOUDY    32  31  96 SW5       29.81S FOG     WCI  28
VIROQUA        CLOUDY    32  32 100 W15       29.82R WCI  22
WIS DELLS      LGT SNOW  31  30  94 SW7       29.82S WCI  24
$$

...ELSEWHERE IN WISCONSIN...


CITY           SKY/WX    TMP DP  RH WIND       PRES   REMARKS
MILWAUKEE      LGT SNOW  34  30  85 W8        29.85F FOG     WCI  27
MADISON        LGT SNOW  31  30  96 VRB6      29.85S FOG     WCI  25
GREEN BAY      LGT SNOW  34  33  96 SW9       29.81F FOG     WCI  27
EAU CLAIRE     LGT SNOW  33  32  96 S7        29.74F FOG     WCI  27
BLACK RVR FLS  CLOUDY    33  33 100 S3        29.79F FOG
MEDFORD        MIX PCPN  30  29  96 S8        29.73F WCI  22
WAUSAU         CLOUDY    30  29  96 SW7       29.75F FOG     WCI  23
WIS RAPIDS     CLOUDY    32  31  96 SW8       29.80F FOG     WCI  25
MARSHFIELD     CLOUDY    31  29  92 SW9       29.75F FOG     WCI  23
RICE LAKE      MIX PCPN  33  32  95 S6        29.73F WCI  28
$$

...NORTHEAST IOWA...


CITY           SKY/WX    TMP DP  RH WIND       PRES   REMARKS
WATERLOO       CLOUDY    33  30  88 SW10      29.89R WCI  25
DUBUQUE        CLOUDY    32  31  96 W13       29.87S WCI  22
DECORAH        CLOUDY    32  30  93 VRB6G13   29.83S WCI  26
MASON CITY     PTCLDY    34  32  92 SW15      29.84S WCI  24
CHARLES CITY   CLOUDY    34  34 100 SW13      29.85S WCI  25
OELWEIN        CLOUDY    32  32 100 SW10      29.88R WCI  24
$$

...ELSEWHERE IN IOWA...


CITY           SKY/WX    TMP DP  RH WIND       PRES   REMARKS
DES MOINES     CLEAR     34  31  88 S7        29.92R WCI  28
IOWA CITY      CLOUDY    35  32  88 W7        29.94R WCI  29
FORT DODGE     CLEAR     30  28  93 S6        29.87S WCI  24
MARSHALLTOWN   CLOUDY    33  31  92 S5        29.90S FOG     WCI  29
CEDAR RAPIDS   CLOUDY    32  32 100 W9        29.91R WCI  24
$$

...NORTHERN ILLINOIS...


CITY           SKY/WX    TMP DP  RH WIND       PRES   REMARKS
CHICAGO-OHARE  MOCLDY    31  30  96 W3        29.87F FOG
CHICAGO-MIDWAY CLOUDY    33  31  92 W5        29.89S FOG     WCI  29
MOLINE         CLOUDY    34  31  88 SW10      29.93R WCI  26
ROCKFORD       CLOUDY    31  29  92 SW7       29.91S FOG     WCI  24
PEORIA         CLOUDY    33  33 100 W8        29.96R WCI  26
$$

NOTE: "FAIR" INDICATES FEW OR NO CLOUDS BELOW 12,000 FEET WITH NO
SIGNIFICANT WEATHER AND/OR OBSTRUCTIONS TO VISIBILITY. WIND
SPEEDS ARE IN MILES-PER-HOUR.




USA.gov is the U.S. government's official web portal to all federal, state and local government web resources and services.